Weather History for Kansas City, MO

Change the Weather History Date:

Thursday, February 14, 2013

  Actual Average Record
Temperature  
Mean Temperature 42 °F -  
Max Temperature 51 °F 44 °F 66 °F (2005)
Min Temperature 34 °F 27 °F 7 °F (2007)
Degree Days  
Heating Degree Days 22    
Moisture  
Dew Point 25 °F    
Average Humidity 50    
Maximum Humidity 70    
Minimum Humidity 35    
Precipitation  
Precipitation 0.00 in - - ()
Sea Level Pressure  
Sea Level Pressure 30.01 in    
Wind  
Wind Speed 7 mph (West)    
Max Wind Speed 13 mph    
Max Gust Speed 23 mph    
Visibility 10 miles    
Events      
Averages and records for this station are not official NWS values.
T = Trace of Precipitation, MM = Missing Value Source: NWS Daily Summary

Daily Weather History Graph

Daily Weather History Graph

Search for Another Location

Airport:

Trip Planner

Search our weather history database for the weather conditions in past years. The results will help you decide how hot, cold, wet, or windy it might be!

Date:

Astronomy

Feb. 14, 2013 Rise Set
Actual Time 7:10 AM CST 5:54 PM CST
Civil Twilight 6:43 AM CST 6:22 PM CST
Nautical Twilight 6:12 AM CST 6:53 PM CST
Astronomical Twilight 5:41 AM CST 7:24 PM CST
Moon 9:15 AM CST (2/14) 10:55 PM CST (2/14)
Length of Visible Light 11h 38m
Length of Day
10h 43m
Waxing Crescent, 22% of the Moon is Illuminated
Feb 14
Waxing Crescent
Feb 17
First Quarter
Feb 25
Full
Mar 4
Last Quarter
Mar 11
New

Hourly Weather History & Observations

Time (CST) Temp. Windchill Dew Point Humidity Pressure Visibility Wind Dir Wind Speed Gust Speed Precip Events Conditions
12:54 AM 42.1 °F 40.2 °F 23.0 °F 47% 29.84 in 10.0 mi WSW 3.5 mph - N/A   Clear
1:54 AM 39.9 °F 35.1 °F 24.1 °F 53% 29.85 in 10.0 mi SW 6.9 mph - N/A   Clear
2:54 AM 39.0 °F 34.8 °F 24.1 °F 55% 29.86 in 10.0 mi SW 5.8 mph - N/A   Clear
3:54 AM 37.9 °F 34.4 °F 25.0 °F 60% 29.87 in 10.0 mi Variable 4.6 mph - N/A   Clear
4:54 AM 36.0 °F 32.1 °F 26.1 °F 67% 29.88 in 10.0 mi SSW 4.6 mph - N/A   Overcast
5:54 AM 35.6 °F 31.7 °F 24.8 °F 65% 29.90 in 10.0 mi SW 4.6 mph - N/A   Partly Cloudy
6:54 AM 34.0 °F 28.0 °F 25.0 °F 70% 29.94 in 10.0 mi SSW 6.9 mph - N/A   Clear
7:54 AM 36.0 °F 31.1 °F 27.0 °F 70% 29.98 in 10.0 mi SSW 5.8 mph - N/A   Clear
8:54 AM 44.1 °F 39.0 °F 30.0 °F 58% 30.00 in 10.0 mi WNW 9.2 mph - N/A   Clear
9:54 AM 46.9 °F - 30.0 °F 52% 30.00 in 10.0 mi NNW 6.9 mph - N/A   Clear
10:54 AM 48.9 °F - 28.0 °F 44% 30.02 in 10.0 mi NW 9.2 mph 18.4 mph N/A   Clear
11:54 AM 50.0 °F - 28.0 °F 43% 30.03 in 10.0 mi NW 10.4 mph 20.7 mph N/A   Clear
12:54 PM 50.0 °F - 28.0 °F 43% 30.02 in 10.0 mi WNW 9.2 mph - N/A   Clear
1:54 PM 50.0 °F - 27.0 °F 41% 30.02 in 10.0 mi WNW 8.1 mph - N/A   Clear
2:54 PM 51.1 °F - 27.0 °F 39% 30.02 in 10.0 mi WNW 12.7 mph - N/A   Clear
3:54 PM 51.1 °F - 25.0 °F 36% 30.03 in 10.0 mi West 12.7 mph 20.7 mph N/A   Clear
4:54 PM 51.1 °F - 24.1 °F 35% 30.04 in 10.0 mi WNW 12.7 mph 21.9 mph N/A   Scattered Clouds
5:54 PM 48.0 °F - 21.9 °F 36% 30.08 in 10.0 mi NW 11.5 mph 23.0 mph N/A   Clear
6:54 PM 46.0 °F 43.1 °F 21.9 °F 39% 30.10 in 10.0 mi WNW 5.8 mph - N/A   Overcast
7:54 PM 44.1 °F 41.5 °F 23.0 °F 43% 30.12 in 10.0 mi WNW 4.6 mph - N/A   Mostly Cloudy
8:54 PM 43.0 °F 38.2 °F 23.0 °F 45% 30.12 in 10.0 mi WNW 8.1 mph - N/A   Clear
9:54 PM 41.0 °F 34.7 °F 21.9 °F 47% 30.14 in 10.0 mi WNW 10.4 mph - N/A   Clear
10:54 PM 39.9 °F 32.9 °F 21.0 °F 47% 30.15 in 10.0 mi WNW 11.5 mph - N/A   Clear
11:54 PM 37.9 °F 30.5 °F 24.1 °F 57% 30.18 in 10.0 mi NW 11.5 mph - N/A   Scattered Clouds